• In Czech Republic
  • List of Countries
  • For 7 days
  • Water Temperature
  • Satellite Maps
  • Weather Map
  • Weather Widgets
  • user-avatar
    Login

    Hourly Weather Quito

    Today, 28 May, Monday

    Time Temperature Precipitation Wind Pressure Humidity
    00:00 +14°C° 0 mm 1 mps 624 mmHg 66%
    01:00 +13°C° 0 mm 1 mps 624 mmHg 68%
    02:00 +13°C° 0 mm 1 mps 624 mmHg 70%
    03:00 +12°C° 0 mm 1 mps 624 mmHg 71%
    04:00 +12°C° 0 mm 1 mps 623 mmHg 73%
    05:00 +12°C° 0 mm 1 mps 624 mmHg 72%
    06:00 +13°C° 0 mm 1 mps 624 mmHg 71%
    07:00 +13°C° 0 mm 1 mps 625 mmHg 70%
    08:00 +16°C° 0 mm 2 mps 625 mmHg 60%
    09:00 +19°C° 0 mm 2 mps 626 mmHg 51%
    10:00 +22°C° 0 mm 3 mps 627 mmHg 41%
    11:00 +24°C° 0 mm 2 mps 627 mmHg 38%
    12:00 +25°C° 0 mm 2 mps 627 mmHg 36%
    13:00 +27°C° 0 mm 1 mps 627 mmHg 33%
    14:00 +26°C° 0 mm 1 mps 626 mmHg 34%
    15:00 +26°C° 0 mm 1 mps 626 mmHg 34%
    16:00 +25°C° 0 mm 1 mps 625 mmHg 35%
    17:00 +23°C° 0 mm 1 mps 625 mmHg 40%
    18:00 +21°C° 0 mm 1 mps 624 mmHg 46%
    19:00 +19°C° 0 mm 1 mps 624 mmHg 51%
    20:00 +18°C° 0 mm 1 mps 624 mmHg 52%
    21:00 +18°C° 0 mm 1 mps 624 mmHg 53%
    22:00 +16°C° 0 mm 1 mps 624 mmHg 53%
    23:00 +16°C° 0 mm 1 mps 624 mmHg 54%

    Tomorrow, 29 May, Tuesday

    Time Temperature Precipitation Wind Pressure Humidity
    00:00 +15°C° 0 mm 1 mps 624 mmHg 55%
    01:00 +14°C° 0 mm 0 mps 624 mmHg 55%
    02:00 +14°C° 0 mm 0 mps 624 mmHg 57%
    03:00 +14°C° 0 mm 1 mps 623 mmHg 58%
    04:00 +14°C° 0 mm 1 mps 623 mmHg 60%
    05:00 +14°C° 0 mm 1 mps 623 mmHg 62%
    06:00 +14°C° 0 mm 1 mps 624 mmHg 64%
    07:00 +14°C° 0 mm 1 mps 624 mmHg 66%
    08:00 +18°C° 0 mm 1 mps 625 mmHg 58%
    09:00 +20°C° 0 mm 2 mps 626 mmHg 50%
    10:00 +24°C° 0 mm 2 mps 627 mmHg 43%
    11:00 +25°C° 0 mm 2 mps 627 mmHg 39%
    12:00 +27°C° 0 mm 1 mps 626 mmHg 34%
    13:00 +28°C° 0 mm 1 mps 626 mmHg 30%
    14:00 +27°C° 0 mm 1 mps 625 mmHg 31%
    15:00 +27°C° 0 mm 1 mps 625 mmHg 32%
    16:00 +26°C° 0 mm 1 mps 624 mmHg 33%
    17:00 +24°C° 0 mm 1 mps 624 mmHg 38%
    18:00 +21°C° 0 mm 1 mps 623 mmHg 43%
    19:00 +19°C° 0 mm 1 mps 623 mmHg 48%
    20:00 +18°C° 0 mm 1 mps 623 mmHg 49%
    21:00 +18°C° 0 mm 1 mps 623 mmHg 49%
    22:00 +16°C° 0 mm 1 mps 623 mmHg 50%
    23:00 +16°C° 0 mm 1 mps 623 mmHg 51%

    Day after tomorrow, 30 May, Wednesday

    Time Temperature Precipitation Wind Pressure Humidity
    00:00 +14°C° 0 mm 0 mps 623 mmHg 53%
    01:00 +14°C° 0 mm 0 mps 622 mmHg 54%
    02:00 +13°C° 0 mm 0 mps 622 mmHg 57%
    03:00 +13°C° 0 mm 0 mps 622 mmHg 60%
    04:00 +12°C° 0 mm 0 mps 622 mmHg 62%
    05:00 +13°C° 0 mm 0 mps 622 mmHg 63%
    06:00 +13°C° 0 mm 0 mps 623 mmHg 64%
    07:00 +14°C° 0 mm 0 mps 624 mmHg 65%
    08:00 +19°C° 0 mm 1 mps 625 mmHg 58%
    09:00 +21°C° 0 mm 1 mps 625 mmHg 50%
    10:00 +24°C° 0 mm 2 mps 626 mmHg 43%
    11:00 +26°C° 0 mm 2 mps 626 mmHg 39%
    12:00 +27°C° 0 mm 1 mps 626 mmHg 35%
    13:00 +28°C° 0 mm 1 mps 626 mmHg 32%
    14:00 +28°C° 0 mm 1 mps 625 mmHg 32%
    15:00 +27°C° 0 mm 1 mps 624 mmHg 33%
    16:00 +27°C° 0 mm 1 mps 624 mmHg 34%
    17:00 +24°C° 0 mm 1 mps 624 mmHg 39%
    18:00 +22°C° 0 mm 1 mps 623 mmHg 44%
    19:00 +19°C° 0 mm 1 mps 623 mmHg 50%
    20:00 +19°C° 0 mm 1 mps 623 mmHg 50%
    21:00 +18°C° 0 mm 1 mps 623 mmHg 50%
    22:00 +18°C° 0 mm 1 mps 624 mmHg 50%
    23:00 +18°C° 0 mm 1 mps 623 mmHg 51%

    31 May, Thursday

    Time Temperature Precipitation Wind Pressure Humidity
    00:00 +16°C° 0 mm 1 mps 623 mmHg 52%
    01:00 +16°C° 0 mm 1 mps 623 mmHg 53%
    02:00 +15°C° 0 mm 1 mps 623 mmHg 56%
    03:00 +14°C° 0 mm 1 mps 622 mmHg 58%
    04:00 +14°C° 0 mm 1 mps 622 mmHg 61%
    05:00 +14°C° 0 mm 1 mps 623 mmHg 62%
    06:00 +14°C° 0 mm 1 mps 623 mmHg 63%
    07:00 +15°C° 0 mm 1 mps 624 mmHg 64%
    08:00 +18°C° 0 mm 2 mps 624 mmHg 56%
    09:00 +21°C° 0 mm 2 mps 625 mmHg 47%
    10:00 +25°C° 0 mm 3 mps 626 mmHg 38%
    11:00 +26°C° 0 mm 3 mps 626 mmHg 36%
    12:00 +27°C° 0 mm 3 mps 626 mmHg 33%
    13:00 +28°C° 0 mm 2 mps 625 mmHg 31%
    14:00 +28°C° 0 mm 2 mps 625 mmHg 32%
    15:00 +27°C° 0 mm 2 mps 624 mmHg 32%
    16:00 +27°C° 0 mm 1 mps 624 mmHg 33%
    17:00 +24°C° 0 mm 1 mps 624 mmHg 38%
    18:00 +22°C° 0 mm 1 mps 624 mmHg 44%
    19:00 +19°C° 0 mm 1 mps 623 mmHg 49%
    20:00 +19°C° 0 mm 1 mps 624 mmHg 50%
    21:00 +18°C° 0 mm 1 mps 624 mmHg 51%
    22:00 +18°C° 0 mm 1 mps 624 mmHg 52%
    23:00 +16°C° 0 mm 1 mps 624 mmHg 54%

    1 June, Friday

    Time Temperature Precipitation Wind Pressure Humidity
    00:00 +16°C° 0 mm 1 mps 623 mmHg 56%
    01:00 +15°C° 0 mm 1 mps 623 mmHg 57%
    02:00 +15°C° 0 mm 1 mps 623 mmHg 59%
    03:00 +14°C° 0 mm 1 mps 623 mmHg 61%
    04:00 +14°C° 0 mm 1 mps 623 mmHg 63%
    05:00 +14°C° 0 mm 1 mps 623 mmHg 63%
    06:00 +14°C° 0 mm 1 mps 624 mmHg 63%
    07:00 +15°C° 0 mm 1 mps 624 mmHg 63%
    08:00 +18°C° 0 mm 2 mps 625 mmHg 54%
    09:00 +21°C° 0 mm 2 mps 626 mmHg 46%
    10:00 +25°C° 0 mm 3 mps 627 mmHg 37%
    11:00 +26°C° 0 mm 3 mps 626 mmHg 34%
    12:00 +27°C° 0 mm 3 mps 626 mmHg 32%
    13:00 +28°C° 0 mm 3 mps 626 mmHg 29%
    14:00 +28°C° 0 mm 2 mps 625 mmHg 29%
    15:00 +27°C° 0 mm 2 mps 625 mmHg 30%
    16:00 +27°C° 0 mm 2 mps 624 mmHg 31%
    17:00 +25°C° 0 mm 1 mps 624 mmHg 36%
    18:00 +22°C° 0 mm 1 mps 624 mmHg 41%
    19:00 +17°C° 0 mm 0 mps 624 mmHg 46%
    20:00 +17°C° 0 mm 0 mps 624 mmHg 47%
    21:00 +18°C° 0 mm 1 mps 624 mmHg 48%
    22:00 +18°C° 0 mm 1 mps 624 mmHg 50%
    23:00 +16°C° 0 mm 1 mps 624 mmHg 52%

    2 June, Saturday

    Time Temperature Precipitation Wind Pressure Humidity
    00:00 +15°C° 0 mm 1 mps 624 mmHg 54%
    01:00 +15°C° 0 mm 1 mps 623 mmHg 55%
    02:00 +14°C° 0 mm 1 mps 623 mmHg 56%
    03:00 +14°C° 0 mm 1 mps 623 mmHg 57%
    04:00 +13°C° 0 mm 1 mps 623 mmHg 58%
    05:00 +13°C° 0 mm 1 mps 623 mmHg 58%
    06:00 +14°C° 0 mm 1 mps 624 mmHg 58%
    07:00 +14°C° 0 mm 1 mps 624 mmHg 58%
    08:00 +17°C° 0 mm 2 mps 625 mmHg 49%
    09:00 +20°C° 0 mm 3 mps 626 mmHg 40%
    10:00 +24°C° 0 mm 3 mps 627 mmHg 32%
    11:00 +25°C° 0 mm 3 mps 627 mmHg 29%
    12:00 +27°C° 0 mm 3 mps 626 mmHg 27%
    13:00 +28°C° 0 mm 3 mps 626 mmHg 24%
    14:00 +27°C° 0 mm 2 mps 626 mmHg 25%
    15:00 +27°C° 0 mm 2 mps 625 mmHg 25%
    16:00 +27°C° 0 mm 2 mps 625 mmHg 26%
    17:00 +24°C° 0 mm 1 mps 625 mmHg 31%
    18:00 +21°C° 0 mm 1 mps 624 mmHg 36%
    19:00 +19°C° 0 mm 1 mps 624 mmHg 40%
    20:00 +18°C° 0 mm 1 mps 624 mmHg 42%
    21:00 +16°C° 0 mm 1 mps 624 mmHg 44%
    22:00 +16°C° 0 mm 1 mps 624 mmHg 45%
    23:00 +15°C° 0 mm 1 mps 624 mmHg 48%
    Show more